Location: Oroua River
(40.4333°S, 175.4333°E)
Time: 14:13:40
(UTC+00:00)

PAYLOAD A - Pass Details

Date: 03 February 2023
Orbit: 692 x 830 km, 98.5° (Epoch: 30 March)

Event Time Altitude Azimuth Distance (km) Brightness Sun altitude
Exits shadow 15:05:42 43° 3° (N) 1,160 4.6 -22.8°
Maximum altitude 15:07:34 80° 283° (WNW) 856 4.0 -22.6°
Drops below altitude 10° 15:13:06 10° 195° (SSW) 2,471 7.0 -21.9°
Sets 15:15:29 0° 194° (SSW) 3,409 7.8 -21.6°
